This demonstration page uses our WeatherBlox Daily Observations layout. Learn more.

Left ArrowRight Arrow

Hourly Observations for September 26, 2021

Temp ( °F °C ) Dew Point ( °F °C ) Humidity (%) Winds ( mph kmh ) Pressure ( in mb ) Visibility ( mi km ) Precip ( " mm )
12:51 am 00:51 Cloudy with Rain 66 18.9 65 18.3 96 96 N N/A 29.97 1015 7 11 0.00 0.00
1:51 am 01:51 Mostly Cloudy 65 18.3 64 17.8 97 97 N N/A 29.95 1014 10 16 0.02 0.51
2:51 am 02:51 Cloudy 65 18.3 64 17.8 97 97 ESE 7 11 29.94 1014 10 16 N/A
3:51 am 03:51 Cloudy 66 18.9 63 17.2 90 90 ESE 6 9 29.93 1013 10 16 N/A
4:51 am 04:51 Cloudy 65 18.3 63 17.2 93 93 SE 6 9 29.93 1014 10 16 N/A
5:51 am 05:51 Partly Cloudy 65 18.3 63 17.2 93 93 SE 7 11 29.94 1014 10 16 N/A
6:51 am 06:51 Cloudy 65 18.3 63 17.2 93 93 SE 7 11 29.96 1014 10 16 N/A
7:51 am 07:51 Cloudy 66 18.9 63 17.2 90 90 SSE 6 9 29.98 1015 10 16 N/A
8:51 am 08:51 Mostly Sunny 68 20 63 17.2 84 84 SW 3 6 29.98 1015 10 16 N/A
9:51 am 09:51 Mostly Sunny 71 21.7 62 16.7 73 73 N N/A 29.98 1015 10 16 N/A
10:51 am 10:51 Cloudy 75 23.9 62 16.7 64 64 VRB 3 6 29.97 1015 10 16 N/A
11:51 am 11:51 Mostly Sunny 72 22.2 63 17.2 73 73 NW 5 7 29.94 1014 10 16 0.00 0.00
12:51 pm 12:51 Mostly Cloudy 75 23.9 62 16.7 64 64 WNW 9 15 29.92 1013 10 16 N/A
1:51 pm 13:51 Mostly Sunny 74 23.3 61 16.1 64 64 WNW 16 26 29.91 1013 10 16 N/A
2:51 pm 14:51 Mostly Sunny 73 22.8 59 15 62 62 NW 14 22 29.91 1013 10 16 N/A
3:51 pm 15:51 Sunny 75 23.9 56 13.3 52 52 NW 17 28 29.89 1012 10 16 N/A
4:51 pm 16:51 Sunny 74 23.3 55 12.8 52 52 NW 13 20 29.90 1013 10 16 N/A
5:51 pm 17:51 Sunny 72 22.2 55 12.8 55 55 NW 8 13 29.92 1013 10 16 N/A
6:51 pm 18:51 Clear 66 18.9 58 14.4 75 75 NW 9 15 29.93 1013 10 16 N/A
7:51 pm 19:51 Clear 64 17.8 60 15.6 87 87 NW 5 7 29.94 1014 10 16 N/A
8:51 pm 20:51 Clear 64 17.8 60 15.6 87 87 N 3 6 29.95 1014 10 16 N/A
9:51 pm 21:51 Clear 62 16.7 60 15.6 93 93 N N/A 29.96 1015 10 16 N/A
10:51 pm 22:51 Clear 61 16.1 59 15 93 93 N N/A 29.96 1015 10 16 N/A
11:51 pm 23:51 Clear 62 16.7 60 15.6 93 93 ESE 5 7 29.95 1014 10 16 N/A

Powered by AerisWeather